Home   Weather   Amarillo   Past weeks

Flag for USA Past Weather in Amarillo, Texas, USA — Yesterday and Last 2 Weeks

Now
24 °F

Overcast.


Feels Like: 13 °F
Forecast: 19 / 48 °F
Wind: 12 mph from South

Location: Amarillo International Airport

Current Time: Dec 9, 2016 at 12:07:20 am

Latest Report: Dec 8, 2016 at 10:53 pm


Visibility: 10 mi

Pressure: 30.60 "Hg (26.55 "Hg at 1117m altitude)

Humidity: 52%

Dew Point: 9 °F

Location of AmarilloLocation

Past Weather in Amarillo — Graph

°F

Amarillo Temperature Yesterday

Maximum temperature yesterday: 25 °F (at 1:53 pm)
Minimum temperature yesterday: 15 °F (at 6:53 am)
Average temperature yesterday: 21 °F

High & Low Weather Summary for the Past Weeks

 TemperatureHumidityPressure
High67 °F (Nov 27, 1:53 pm)100% (Dec 2, 11:00 pm)30.72 "Hg (Dec 2, 11:00 pm)
Low15 °F (Dec 8, 6:53 am)15% (Nov 27, 3:53 pm)29.31 "Hg (Nov 28, 2:53 pm)
Average39 °F59%30.01 "Hg
* Reported Nov 23 9:53 pm — Dec 8 9:53 pm, Amarillo, Weather by CustomWeather, © 2016

Note: Actual official high and low records may vary slightly from our data, if they occured in-between our weather recording intervals... More about our weather records

Advertising

Amarillo Weather History for the Previous 24 Hours

Scroll right to see more
 ConditionsComfort  
Time TempWeatherWind HumidityBarometerVisibility
9:53 pm
Thu, Dec 8
24 °FOvercast.12 mph52%30.62 "Hg10 mi
8:53 pm24 °FOvercast.9 mph52%30.63 "Hg10 mi
7:53 pm24 °FOvercast.8 mph50%30.63 "Hg10 mi
6:53 pm24 °FOvercast.10 mph48%30.62 "Hg10 mi
5:53 pm24 °FOvercast.7 mph48%30.61 "Hg10 mi
4:53 pm25 °FOvercast.6 mph46%30.62 "Hg10 mi
3:53 pm25 °FOvercast.6 mph44%30.61 "Hg10 mi
2:53 pm24 °FOvercast.5 mph46%30.62 "Hg10 mi
1:53 pm25 °FOvercast.6 mph44%30.63 "Hg10 mi
12:53 pm24 °FOvercast.7 mph48%30.66 "Hg10 mi
11:53 am22 °FOvercast.8 mph52%30.68 "Hg10 mi
10:53 am20 °FPartly sunny.8 mph57%30.71 "Hg10 mi
9:53 am17 °FOvercast.13 mph64%30.72 "Hg10 mi
8:53 am15 °FSunny.13 mph77%30.70 "Hg10 mi
7:53 am15 °FMostly cloudy.12 mph74%30.68 "Hg10 mi
6:53 am15 °FOvercast.14 mph77%30.65 "Hg10 mi
5:53 am16 °FOvercast.15 mph77%30.62 "Hg10 mi
4:53 am17 °FMostly cloudy.17 mph76%30.61 "Hg10 mi
3:53 am19 °FOvercast.16 mph85%30.59 "Hg10 mi
2:53 am19 °FOvercast.17 mph85%30.58 "Hg10 mi
1:53 am19 °FLow clouds.14 mph88%30.57 "Hg10 mi
12:53 am20 °FLow clouds.12 mph85%30.56 "Hg10 mi
Weather by CustomWeather, © 2016

See weather overviewHow to use our weather pages